User: anonymous   Login
Location: Caltech
(34.1382°N, 118.1253°W)
Time: 18:56:15
(UTC-07:00)
Language:

PAYLOAD A - Orbit

View from above orbital plane
View from above orbital plane
View from above satellite
View from above satellite

Ground track
Ground track

The orbit data is extracted from the following two-line orbital elements,

1 27840U 03031A   17289.51077587 -.00000003 +00000-0 +12108-4 0  9995
2 27840 098.2135 281.8413 0099397 113.0891 248.0812 14.38889933750663
Epoch (UTC): 16 October 2017 12:15:31
Eccentricity: 0.0099397
inclination: 98.2135°
perigee height: 691 km
apogee height: 833 km
right ascension of ascending node: 281.8413°
argument of perigee: 113.0891°
revolutions per day: 14.38889933
mean anomaly at epoch: 248.0812°
orbit number at epoch: 75066

The dashed part of the orbit path shows where the satellite is in the earth's shadow,  

DLR